Location: ????
(32.1228°N, 34.8377°E)
Time: 04:09:21
(UTC+00:00)

H-2A R/B - Pass Details

Date: 21 September 2020
Orbit: 577 x 655 km, 98.5° (Epoch: 23 October)

Event Time Altitude Azimuth Distance (km) Brightness Sun altitude
Rises 01:21:32 0° 157° (SSE) 2,864 5.5 -27.2°
Reaches altitude 10° 01:23:42 10° 153° (SSE) 1,976 4.7 -26.7°
Maximum altitude 01:27:56 58° 75° (ENE) 731 2.6 -25.9°
Drops below altitude 10° 01:32:17 10° 356° (N) 2,033 4.8 -25.0°
Sets 01:34:32 0° 353° (N) 2,956 5.7 -24.5°
